Reading, PA

6:42 PM EST on February 09, 2016 (GMT -0500)
Reading Regional-Spaatz

Weather History for KRDG - June, 2014

Change the Weather History Date:

Wednesday, June 4, 2014

  Actual Average Record
Temperature  
Mean Temperature 73 °F 67 °F  
Max Temperature 84 °F 78 °F 98 °F (1925)
Min Temperature 61 °F 56 °F 41 °F (1977)
Degree Days  
Heating Degree Days 0 2  
Month to date heating degree days 0 8  
Since 1 June heating degree days 0 8  
Since 1 July heating degree days 5744 5376  
Cooling Degree Days 8 4  
Month to date cooling degree days 22 15  
Year to date cooling degree days 84 75  
Since 1 June cooling degree days 22 15  
Growing Degree Days 22 (Base 50)    
Moisture  
Dew Point 58 °F    
Average Humidity 66    
Maximum Humidity 97    
Minimum Humidity 34    
Precipitation  
Precipitation 0.12 in 0.13 in 1.49 in (1942)
Month to date precipitation 0.15 0.52  
Year to date precipitation 18.97 17.54  
Sea Level Pressure  
Sea Level Pressure 29.83 in    
Wind  
Wind Speed 6 mph (NNW)    
Max Wind Speed 17 mph    
Max Gust Speed 21 mph    
Visibility 7 miles    
Events Rain    
T = Trace of Precipitation, MM = Missing Value Source: NWS Daily Summary

Daily Weather History Graph

Daily Weather History Graph

Search for Another Location

Airport or City:

Trip Planner

Search our weather history database for the weather conditions in past years. The results will help you decide how hot, cold, wet, or windy it might be!

Date:

Astronomy

Jun. 04, 2014 Rise Set
Actual Time 5:34 AM EDT 8:29 PM EDT
Civil Twilight 5:02 AM EDT 9:02 PM EDT
Nautical Twilight 4:21 AM EDT 9:43 PM EDT
Astronomical Twilight 3:33 AM EDT 10:31 PM EDT
Moon 11:52 AM EDT (6/4) 12:26 AM EDT (6/4)
Length of Visible Light 16h 00m
Length of Day
14h 55m
Waxing Crescent, 39% of the Moon is Illuminated
Jun 4
Waxing Crescent
Jun 5
First Quarter
Jun 13
Full
Jun 19
Last Quarter
Jun 27
New

Hourly Weather History & Observations

Time (EDT) Temp. Heat Index Dew Point Humidity Pressure Visibility Wind Dir Wind Speed Gust Speed Precip Events Conditions
1:54 AM 64.9 °F - 62.1 °F 90% 29.84 in 10.0 mi Calm Calm - N/A   Clear
2:54 AM 64.0 °F - 61.0 °F 90% 29.83 in 3.0 mi South 3.5 mph - N/A   Clear
3:38 AM 63.0 °F - 61.0 °F 93% 29.82 in 1.5 mi East 3.5 mph - N/A   Partly Cloudy
3:50 AM 62.6 °F - 60.8 °F 94% 29.82 in 3.0 mi Calm Calm - N/A   Partly Cloudy
3:54 AM 63.0 °F - 61.0 °F 93% 29.83 in 4.0 mi Calm Calm - N/A   Partly Cloudy
4:46 AM 62.1 °F - 61.0 °F 96% 29.84 in 1.8 mi Calm Calm - N/A   Clear
4:54 AM 63.0 °F - 61.0 °F 93% 29.85 in 2.0 mi Calm Calm - N/A   Clear
5:03 AM 62.1 °F - 60.1 °F 93% 29.84 in 1.0 mi Calm Calm - N/A   Clear
5:14 AM 62.1 °F - 60.1 °F 93% 29.84 in 3.0 mi Calm Calm - N/A   Clear
5:28 AM 62.1 °F - 60.1 °F 93% 29.84 in 1.5 mi Calm Calm - N/A   Clear
5:54 AM 61.0 °F - 59.0 °F 93% 29.86 in 8.0 mi North 3.5 mph - N/A   Clear
6:30 AM 62.1 °F - 60.1 °F 93% 29.86 in 1.8 mi Calm Calm - N/A   Clear
6:41 AM 64.0 °F - 61.0 °F 90% 29.86 in 3.0 mi NW 3.5 mph - N/A   Clear
6:54 AM 66.0 °F - 61.0 °F 84% 29.87 in 8.0 mi NW 3.5 mph - N/A   Clear
7:54 AM 69.1 °F - 61.0 °F 75% 29.88 in 10.0 mi North 5.8 mph - N/A   Clear
8:54 AM 71.1 °F - 57.9 °F 63% 29.89 in 10.0 mi North 5.8 mph - N/A   Clear
9:54 AM 72.0 °F - 59.0 °F 64% 29.89 in 10.0 mi North 3.5 mph - N/A   Unknown
11:54 AM 77.0 °F - 55.9 °F 48% 29.86 in 10.0 mi Variable 3.5 mph - N/A   Clear
12:54 PM 81.0 °F 80.5 °F 54.0 °F 39% 29.84 in 10.0 mi North 6.9 mph - N/A   Clear
1:54 PM 82.0 °F 81.6 °F 55.9 °F 41% 29.81 in 10.0 mi NW 5.8 mph - N/A   Clear
2:54 PM 82.0 °F 81.4 °F 55.0 °F 39% 29.81 in 10.0 mi North - - N/A   Partly Cloudy
3:54 PM 82.0 °F - 52.0 °F 35% 29.79 in 10.0 mi West 6.9 mph - N/A   Clear
4:54 PM 81.0 °F - 52.0 °F 36% 29.79 in 10.0 mi NW 10.4 mph - N/A   Clear
5:54 PM 78.1 °F - 51.1 °F 39% 29.79 in 10.0 mi WNW 15.0 mph - N/A   Clear
6:54 PM 75.9 °F - 54.0 °F 46% 29.77 in 10.0 mi NW 9.2 mph - N/A   Clear
7:54 PM 75.0 °F - 53.1 °F 46% 29.76 in 10.0 mi North 3.5 mph - N/A   Clear
8:54 PM 73.0 °F - 53.1 °F 49% 29.75 in 10.0 mi North 5.8 mph - N/A   Overcast
9:54 PM 71.1 °F - 55.0 °F 57% 29.78 in 10.0 mi WNW 4.6 mph - 0.00 in Rain Light Rain
11:54 PM 63.0 °F - 59.0 °F 87% 29.76 in 10.0 mi NNE 6.9 mph - 0.05 in Rain Light Rain